User: anonymous
Location: USNO
(38.9242°N, 77.0663°W)
Time: 14:26:16
(UTC-04:00)
Language:

Cosmos 1206 Rocket - Orbit

View from above orbital plane
View from above orbital plane
View from above satellite
View from above satellite

Ground track
Ground track

The orbit data is extracted from the following two-line orbital elements,

1 11933U 80069B   14110.18770923  .00322993  38602-4  91955-3 0  3081
2 11933 081.1919 057.9596 0011628 134.5949 225.6272 15.93117229854106
Epoch (UTC): 20 April 2014 04:30:18
Eccentricity: 0.0011628
inclination: 81.1919°
perigee height: 286 km
apogee height: 301 km
right ascension of ascending node: 57.9596°
argument of perigee: 134.5949°
revolutions per day: 15.93117229
mean anomaly at epoch: 225.6272°
orbit number at epoch: 85410

The dashed part of the orbit path shows where the satellite is in the earth's shadow,  

DLR